Location: Anciles
(42.5833°N, 0.5167°E)
Time: 12:53:57
(UTC+00:00)

Cosmos 2221 Rocket - Pass Details

Date: 10 December 2019
Orbit: 621 x 647 km, 82.5° (Epoch: 27 January)

Event Time Altitude Azimuth Distance (km) Brightness Sun altitude
Rises 18:16:27 0° 173° (S) 2,925 7.1 -19.9°
Reaches altitude 10° 18:18:44 10° 168° (SSE) 2,017 6.2 -20.3°
Enters shadow 18:22:36 48° 115° (ESE) 829 3.8 -21.0°
